[[{"header":{"parameterUnit":"m.s-1","parameterCategory":2,"la1":30.2991,"la2":30.254,"lo1":-89.0895,"lo2":-89.0444,"dy":0.0017,"dx":0.0017,"nx":28,"ny":28,"refTime":"2025-12-25T09:00:00:Z","depth":"0","parameterNumber":2,"parameterNumberName":"U-component_of_CURRENTS"},"data":[0,0,0,0,0,0,0,0,0,0,0,0,0,0,0,0,0,0,0,0,0,0,0,0,0,0,0,0,0,0,0,0,0,0,0,0,0,0,0,0,0,0,0,0,0,0,0,0,0,0,0,0,0,0,0,0,0,0,-0.1557,-0.1558,0,-0.1625,-0.1626,-0.1626,-0.1627,-0.1627,-0.1626,-0.1626,-0.1587,-0.1587,-0.1586,0,0,0,0,0,0,0,0,0,0,0,0,0,-0.1432,-0.1434,-0.1557,-0.1558,-0.1559,-0.1625,-0.1626,-0.1627,-0.1627,-0.1627,-0.1626,-0.1625,-0.1587,-0.1587,-0.1586,0,0,0,0,0,0,0,0,0,0,0,0,0,-0.1488,-0.1434,-0.1556,-0.157,-0.1572,-0.1625,-0.1626,-0.1627,-0.1628,-0.1627,-0.1626,-0.1625,-0.1588,-0.1587,-0.1586,-0.1598,0,0,-0.1584,-0.1584,0,0,0,0,0,0,0,0,-0.1485,-0.1493,-0.1567,-0.1569,-0.1572,-0.162,-0.1568,-0.1613,-0.1628,-0.1603,-0.1626,-0.1625,-0.1591,-0.159,-0.1602,-0.1597,-0.1595,-0.1584,-0.1583,-0.1583,-0.1583,0,0,0,0,0,0,0,-0.1481,-0.149,-0.158,-0.1568,-0.1571,-0.1575,-0.1581,-0.1577,-0.1596,-0.1605,-0.1606,-0.1619,-0.1591,-0.1602,-0.16,-0.1594,-0.1584,-0.1583,-0.1583,-0.1582,-0.1581,-0.1581,0,0,0,0,0,0,-0.1481,-0.1486,-0.1578,-0.1583,-0.1529,-0.1578,-0.1585,-0.1602,-0.1599,-0.1599,-0.162,-0.1619,-0.1604,-0.1601,-0.1599,-0.1618,-0.1583,-0.1582,-0.1582,-0.158,-0.1581,-0.1581,0,0,0,0,0,0,-0.1478,-0.1488,-0.1576,-0.1538,-0.155,-0.1581,-0.16,-0.1604,-0.1616,-0.1612,-0.1609,-0.1628,-0.1603,-0.16,-0.16,-0.1616,-0.1582,-0.1581,-0.158,-0.158,-0.1581,-0.1652,0,0,0,0,0,0,-0.1474,-0.1487,-0.1494,-0.1539,-0.1552,-0.1611,-0.1602,-0.1606,-0.1627,-0.1626,-0.1618,-0.1614,-0.1602,-0.1601,-0.1599,-0.1614,-0.1581,-0.1579,-0.158,-0.1581,-0.165,-0.1655,-0.166,0,0,0,0,0,-0.1469,-0.1481,-0.1494,-0.1505,-0.1562,-0.1612,-0.1619,-0.1635,-0.1628,-0.164,-0.1633,-0.1614,-0.1604,-0.1602,-0.1599,-0.1614,-0.1579,-0.158,-0.1581,-0.1647,-0.1654,-0.166,0,0,0,0,0,0,-0.143,-0.1484,-0.1498,-0.1526,-0.1569,-0.1613,-0.1622,-0.1639,-0.1646,-0.1637,-0.1625,-0.1622,-0.1626,-0.1608,-0.1606,-0.1613,-0.1586,-0.1586,-0.1637,-0.1643,-0.1649,-0.1661,-0.158,0,0,0,0,0,-0.1427,-0.1446,-0.1506,-0.1526,-0.1547,-0.1586,-0.1605,-0.1624,-0.1642,-0.1645,-0.1641,-0.1631,-0.1629,-0.1627,-0.1619,-0.1628,-0.1624,-0.1632,-0.1637,-0.1642,-0.1649,-0.1671,-0.168,-0.1584,-0.1584,-0.1584,0,0,-0.1418,-0.1449,-0.1461,-0.1519,-0.1547,-0.159,-0.1594,-0.1629,-0.1658,-0.1637,-0.1657,-0.1649,-0.1635,-0.1647,-0.1646,-0.1634,-0.1666,-0.1643,-0.1648,-0.1652,-0.1673,-0.1682,-0.1691,-0.1585,-0.1585,-0.1584,0,0,-0.1417,-0.1439,-0.1461,-0.1501,-0.1555,-0.1584,-0.1597,-0.1647,-0.166,-0.1685,-0.1677,-0.1692,-0.1675,-0.1691,-0.169,-0.1721,-0.1694,-0.1699,-0.1741,-0.1762,-0.1771,-0.1779,-0.1786,-0.1793,-0.1703,-0.1704,-0.1704,0,-0.1407,-0.1445,-0.1475,-0.1514,-0.1549,-0.1584,-0.1627,-0.1652,-0.1694,-0.1718,-0.1691,-0.1717,-0.1705,-0.1747,-0.175,-0.1737,-0.1729,-0.1722,-0.1772,-0.1779,-0.1786,-0.1791,-0.1799,-0.1707,-0.1707,-0.1706,-0.1706,0,-0.143,-0.1466,-0.1481,-0.1543,-0.1583,-0.1622,-0.1675,-0.1706,-0.1717,-0.1751,-0.1788,-0.1784,-0.1803,-0.1799,-0.1778,-0.1822,-0.1795,-0.1779,-0.1762,-0.18,-0.1803,-0.1809,-0.1712,-0.1711,-0.171,-0.1709,0,0,-0.1405,-0.1483,-0.1489,-0.1529,-0.1603,-0.1642,-0.1694,-0.1764,-0.1808,-0.183,-0.1882,-0.1889,-0.1895,-0.1893,-0.1883,-0.1896,-0.1933,-0.1849,-0.1849,-0.1867,-0.1962,-0.1827,-0.1821,-0.1918,-0.1919,-0.192,-0.1946,0,-0.1418,-0.1482,-0.1523,-0.1594,-0.1641,-0.1697,-0.1749,-0.1815,-0.1853,-0.1907,-0.1928,-0.1958,-0.1928,-0.1934,-0.195,-0.1932,-0.1952,-0.1926,-0.1912,-0.1912,-0.1797,-0.1825,-0.1703,-0.1704,-0.1952,-0.1953,-0.1954,0,-0.1434,-0.1478,-0.1539,-0.1638,-0.1664,-0.1706,-0.1804,-0.1858,-0.1946,-0.1976,-0.2025,-0.2033,-0.207,-0.2024,-0.2044,-0.2021,-0.1998,-0.1983,-0.1983,-0.1837,-0.1788,-0.1704,-0.1706,-0.1683,-0.1964,-0.1963,-0.1962,0,-0.1402,-0.1495,-0.1536,-0.157,-0.168,-0.1717,-0.1774,-0.1874,-0.1929,-0.2015,-0.205,-0.2105,-0.2109,-0.2112,-0.2071,-0.2056,-0.2074,-0.2058,-0.1928,-0.1919,-0.1801,-0.1777,-0.1787,-0.2081,-0.2081,-0.2081,-0.2081,0,-0.1404,-0.1446,-0.152,-0.1548,-0.1619,-0.17,-0.178,-0.1852,-0.1948,-0.2015,-0.207,-0.2107,-0.2123,-0.213,-0.2103,-0.2023,-0.2106,-0.1938,-0.1917,-0.1818,-0.1797,-0.1757,-0.1781,-0.2082,-0.2082,-0.2082,-0.2082,0,-0.1368,-0.1415,-0.1474,-0.1569,-0.1604,-0.1649,-0.1771,-0.1839,-0.1922,-0.2004,-0.2026,-0.2105,-0.2102,-0.2111,-0.2107,-0.2034,-0.1946,-0.1953,-0.1822,-0.1782,-0.1593,-0.1624,-0.162,-0.1577,-0.1809,-0.1806,-0.1803,0,-0.1356,-0.1375,-0.1463,-0.1506,-0.1545,-0.1626,-0.1698,-0.181,-0.1877,-0.1991,-0.2023,-0.2053,-0.2061,-0.2006,-0.1895,-0.1827,-0.1854,-0.1664,-0.1609,-0.1563,-0.1586,-0.1627,-0.1596,-0.1497,-0.1492,-0.1488,-0.1485,0,-0.1327,-0.1343,-0.1384,-0.1472,-0.1538,-0.1621,-0.1714,-0.1758,-0.1883,-0.1935,-0.1984,-0.1992,-0.1917,-0.1765,-0.1653,-0.1602,-0.1596,-0.1572,-0.1579,-0.1379,-0.1374,-0.1327,-0.1504,-0.1448,-0.1452,-0.1455,-0.1457,-0.1458,-0.1287,-0.1301,-0.1354,-0.1437,-0.1521,-0.1598,-0.1626,-0.1715,-0.178,-0.1812,-0.1872,-0.1776,-0.1648,-0.1449,-0.1412,-0.1212,-0.1317,-0.1146,-0.1203,-0.1259,-0.1168,-0.1239,-0.1115,-0.1116,-0.1118,-0.1119,-0.112,0,-0.1234,-0.1264,-0.1335,-0.1416,-0.1488,-0.1549,-0.1633,-0.1632,-0.1652,-0.1617,-0.161,-0.1352,-0.123,-0.1122,-0.0921,-0.0859,-0.0878,-0.0866,-0.0929,-0.0926,-0.1023,-0.0953,-0.072,-0.072,-0.072,-0.072,-0.072,-0.072,-0.1207,-0.123,-0.1272,-0.1361,-0.1424,-0.1453,-0.1472,-0.1462,-0.1402,-0.1215,-0.0992,-0.0867,-0.0778,-0.0828,-0.0756,-0.0728,-0.0762,-0.0718,-0.0797,-0.0891,-0.0923,-0.0954,-0.0893,-0.0652,-0.0652,-0.0639,-0.0639,-0.0639]},{"header":{"parameterUnit":"m.s-1","parameterCategory":2,"la1":30.2991,"la2":30.254,"lo1":-89.0895,"lo2":-89.0444,"dy":0.0017,"dx":0.0017,"nx":28,"ny":28,"refTime":"2025-12-25T09:00:00:Z","depth":"0","parameterNumber":3,"parameterNumberName":"V-component_of_CURRENTS"},"data":[0,0,0,0,0,0,0,0,0,0,0,0,0,0,0,0,0,0,0,0,0,0,0,0,0,0,0,0,0,0,0,0,0,0,0,0,0,0,0,0,0,0,0,0,0,0,0,0,0,0,0,0,0,0,0,0,0,0,-0.0458,-0.0457,0,-0.0381,-0.038,-0.0379,-0.0337,-0.0337,-0.0337,-0.0337,-0.0272,-0.0271,-0.0269,0,0,0,0,0,0,0,0,0,0,0,0,0,-0.0511,-0.0511,-0.0458,-0.0457,-0.0456,-0.0381,-0.038,-0.0379,-0.0337,-0.0337,-0.0337,-0.0337,-0.0273,-0.0271,-0.0269,0,0,0,0,0,0,0,0,0,0,0,0,0,-0.0467,-0.0511,-0.0458,-0.0426,-0.0422,-0.0381,-0.038,-0.0379,-0.0337,-0.0337,-0.0337,-0.0337,-0.0274,-0.0271,-0.0269,-0.0259,0,0,-0.0262,-0.0261,0,0,0,0,0,0,0,0,-0.047,-0.0466,-0.0432,-0.0428,-0.0424,-0.0368,-0.0375,-0.0339,-0.0337,-0.037,-0.0337,-0.0336,-0.0305,-0.03,-0.0287,-0.0256,-0.0253,-0.0262,-0.026,-0.0259,-0.0258,0,0,0,0,0,0,0,-0.0473,-0.0468,-0.0428,-0.0431,-0.0426,-0.0395,-0.0389,-0.0368,-0.0341,-0.0367,-0.0364,-0.0354,-0.0303,-0.0289,-0.0285,-0.0252,-0.0262,-0.026,-0.0258,-0.0257,-0.0171,-0.017,0,0,0,0,0,0,-0.0485,-0.0472,-0.0431,-0.0426,-0.0446,-0.0394,-0.0388,-0.0386,-0.034,-0.0333,-0.0355,-0.0353,-0.0293,-0.0288,-0.0283,-0.0264,-0.0259,-0.0257,-0.0256,-0.0172,-0.0171,-0.017,0,0,0,0,0,0,-0.0486,-0.0482,-0.0434,-0.0446,-0.0437,-0.0394,-0.0393,-0.0385,-0.0369,-0.0331,-0.0323,-0.0346,-0.0293,-0.0286,-0.0259,-0.0261,-0.0256,-0.0254,-0.0173,-0.0172,-0.017,-0.0229,0,0,0,0,0,0,-0.0488,-0.0484,-0.0487,-0.0447,-0.0437,-0.0415,-0.0393,-0.0384,-0.0363,-0.036,-0.0321,-0.0315,-0.0292,-0.0262,-0.0256,-0.0258,-0.0252,-0.0174,-0.0172,-0.0171,-0.0229,-0.023,-0.0232,0,0,0,0,0,-0.0491,-0.0504,-0.0488,-0.0483,-0.0444,-0.0415,-0.0407,-0.0375,-0.0363,-0.0359,-0.0328,-0.0316,-0.0247,-0.026,-0.0253,-0.0254,-0.0175,-0.0173,-0.0171,-0.0228,-0.023,-0.0232,0,0,0,0,0,0,-0.0532,-0.05,-0.0482,-0.0485,-0.0452,-0.0407,-0.0406,-0.0378,-0.0349,-0.0349,-0.0311,-0.0302,-0.0276,-0.0252,-0.0267,-0.022,-0.0207,-0.0203,-0.0252,-0.0254,-0.0255,-0.028,-0.025,0,0,0,0,0,-0.0542,-0.0545,-0.05,-0.0504,-0.0492,-0.0447,-0.0431,-0.0407,-0.0375,-0.0362,-0.0329,-0.0293,-0.0261,-0.0249,-0.0216,-0.0199,-0.0186,-0.019,-0.0191,-0.0193,-0.0205,-0.0176,-0.0178,-0.0163,-0.0163,-0.0163,0,0,-0.0558,-0.0542,-0.0542,-0.0512,-0.0489,-0.0483,-0.0438,-0.0421,-0.0417,-0.0361,-0.0347,-0.0299,-0.0255,-0.0231,-0.0217,-0.0215,-0.0192,-0.0191,-0.0193,-0.0204,-0.0175,-0.0176,-0.0178,-0.0162,-0.0162,-0.0162,0,0,-0.0598,-0.0579,-0.0593,-0.0571,-0.0537,-0.0512,-0.0508,-0.046,-0.044,-0.0412,-0.0368,-0.0319,-0.0278,-0.0241,-0.022,-0.0209,-0.0198,-0.0195,-0.0232,-0.0204,-0.0206,-0.0207,-0.0208,-0.0209,-0.0201,-0.0201,-0.0201,0,-0.0618,-0.063,-0.0591,-0.0597,-0.0591,-0.0531,-0.0544,-0.0514,-0.046,-0.0444,-0.0418,-0.0327,-0.0284,-0.0253,-0.0242,-0.0216,-0.021,-0.0235,-0.021,-0.021,-0.0211,-0.0211,-0.0212,-0.0204,-0.0203,-0.0203,-0.0203,0,-0.0668,-0.067,-0.0679,-0.0672,-0.0659,-0.0659,-0.0615,-0.0593,-0.0557,-0.0515,-0.0463,-0.0388,-0.0335,-0.0305,-0.0273,-0.0248,-0.0247,-0.0216,-0.0216,-0.0217,-0.0216,-0.0216,-0.0207,-0.0206,-0.0206,-0.0205,0,0,-0.0725,-0.0718,-0.0718,-0.0728,-0.0699,-0.0696,-0.0692,-0.0664,-0.0656,-0.0583,-0.0566,-0.0478,-0.0419,-0.0389,-0.0327,-0.0295,-0.0285,-0.0264,-0.0261,-0.0286,-0.0251,-0.014,-0.0129,-0.0255,-0.0255,-0.0255,-0.0256,0,-0.0774,-0.0815,-0.0791,-0.0822,-0.0841,-0.079,-0.0789,-0.0753,-0.0706,-0.0669,-0.0578,-0.053,-0.0458,-0.0424,-0.038,-0.0306,-0.0284,-0.0289,-0.0229,-0.0228,-0.0144,-0.0124,-0.0051,-0.0036,-0.0256,-0.0256,-0.0256,0,-0.0829,-0.0851,-0.09,-0.0902,-0.0904,-0.091,-0.0899,-0.0882,-0.0814,-0.0772,-0.0703,-0.0626,-0.0558,-0.0492,-0.0392,-0.0403,-0.0337,-0.028,-0.0278,-0.0154,-0.0114,-0.0063,-0.0026,0.0093,-0.0254,-0.0254,-0.0255,0,-0.0904,-0.0922,-0.0972,-0.0974,-0.0968,-0.0977,-0.0966,-0.0916,-0.0899,-0.0834,-0.0809,-0.0714,-0.0666,-0.057,-0.0431,-0.0422,-0.0328,-0.0298,-0.0144,-0.0138,-0.0052,-0.0036,0.0094,-0.0236,-0.0236,-0.0236,-0.0236,0,-0.097,-0.1001,-0.1011,-0.1036,-0.108,-0.1047,-0.1063,-0.1032,-0.0982,-0.0965,-0.0863,-0.0837,-0.0681,-0.0593,-0.0476,-0.0304,-0.0362,-0.015,-0.0119,-0.0068,-0.0054,0.0075,0.0098,-0.0236,-0.0236,-0.0236,-0.0236,0,-0.1036,-0.1044,-0.1097,-0.1113,-0.1117,-0.1147,-0.1129,-0.1128,-0.1076,-0.1054,-0.1037,-0.094,-0.0819,-0.0653,-0.05,-0.0352,-0.0114,-0.0133,-0.009,-0.005,0.024,0.0256,0.0387,0.0465,0.0034,0.0037,0.004,0,-0.1072,-0.1108,-0.116,-0.119,-0.1197,-0.1223,-0.123,-0.1185,-0.1174,-0.1117,-0.1114,-0.1001,-0.0917,-0.0646,-0.0357,-0.0118,-0.0033,0.0102,0.0166,0.0277,0.0316,0.0316,0.037,0.0232,0.0236,0.0239,0.0241,0,-0.1131,-0.1152,-0.1199,-0.1267,-0.1299,-0.132,-0.1324,-0.1332,-0.1272,-0.125,-0.1217,-0.1157,-0.0858,-0.0542,-0.0178,-0.0017,0.0215,0.0178,0.0283,0.0484,0.0499,0.0582,0.018,0.027,0.0267,0.0265,0.0263,0.0262,-0.1164,-0.1218,-0.1279,-0.1343,-0.1378,-0.1404,-0.1423,-0.1415,-0.1409,-0.1328,-0.1278,-0.1054,-0.0622,-0.0094,0.0054,0.0511,0.0433,0.0656,0.0658,0.0642,0.0761,0.0426,0.0573,0.0572,0.0571,0.057,0.057,0,-0.1203,-0.1263,-0.1337,-0.1414,-0.1459,-0.1454,-0.1471,-0.1471,-0.1476,-0.1279,-0.1201,-0.0538,-0.0168,0.0259,0.0819,0.0993,0.0997,0.1062,0.106,0.1089,0.0792,0.0851,0.108,0.1079,0.1079,0.1079,0.1079,0.1079,-0.1224,-0.1321,-0.1374,-0.147,-0.1503,-0.1544,-0.1553,-0.1543,-0.1396,-0.1015,-0.053,-0.0161,0.0506,0.0947,0.1327,0.1357,0.1445,0.1429,0.1461,0.1242,0.1203,0.1166,0.1231,0.1536,0.1536,0.1774,0.1777,0.1778]}],[{"header":{"parameterUnit":"m.s-1","parameterCategory":2,"la1":30.2991,"la2":30.254,"lo1":-89.0895,"lo2":-89.0444,"dy":0.0017,"dx":0.0017,"nx":28,"ny":28,"refTime":"2025-12-25T09:00:00:Z","depth":"2","parameterNumber":2,"parameterNumberName":"U-component_of_CURRENTS"},"data":[0,0,0,0,0,0,0,0,0,0,0,0,0,0,0,0,0,0,0,0,0,0,0,0,0,0,0,0,0,0,0,0,0,0,0,0,0,0,0,0,0,0,0,0,0,0,0,0,0,0,0,0,0,0,0,0,0,0,-0.2058,-0.2058,0,-0.2107,-0.2109,-0.211,-0.2145,-0.2144,-0.2143,-0.2143,-0.2096,-0.2096,-0.2095,0,0,0,0,0,0,0,0,0,0,0,0,0,-0.2131,-0.2129,-0.2059,-0.2058,-0.2058,-0.2107,-0.2109,-0.2111,-0.2145,-0.2144,-0.2143,-0.2142,-0.2096,-0.2096,-0.2095,0,0,0,0,0,0,0,0,0,0,0,0,0,-0.2142,-0.2129,-0.2059,-0.2072,-0.2073,-0.2107,-0.2109,-0.2111,-0.2145,-0.2144,-0.2143,-0.2142,-0.2096,-0.2096,-0.2095,-0.2114,0,0,-0.2093,-0.2092,0,0,0,0,0,0,0,0,-0.2141,-0.2141,-0.2071,-0.2071,-0.2072,-0.2109,-0.2117,-0.2103,-0.2146,-0.213,-0.2143,-0.2141,-0.2085,-0.2085,-0.2115,-0.2112,-0.211,-0.2093,-0.2092,-0.2092,-0.2092,0,0,0,0,0,0,0,-0.214,-0.214,-0.209,-0.207,-0.2071,-0.2121,-0.2122,-0.2117,-0.2121,-0.2131,-0.2131,-0.2119,-0.2086,-0.2116,-0.2113,-0.2109,-0.2093,-0.2092,-0.2092,-0.2091,-0.218,-0.2182,0,0,0,0,0,0,-0.2105,-0.2138,-0.2088,-0.209,-0.2091,-0.212,-0.2121,-0.2108,-0.2123,-0.2121,-0.2119,-0.212,-0.2117,-0.2114,-0.2111,-0.2169,-0.2092,-0.2091,-0.2091,-0.2177,-0.218,-0.2183,0,0,0,0,0,0,-0.2106,-0.21,-0.2086,-0.2106,-0.2106,-0.2117,-0.2104,-0.2109,-0.214,-0.2113,-0.2112,-0.2143,-0.2116,-0.2112,-0.2159,-0.2165,-0.2091,-0.209,-0.2174,-0.2178,-0.2182,-0.226,0,0,0,0,0,0,-0.2108,-0.2101,-0.2106,-0.2103,-0.2103,-0.2117,-0.2104,-0.211,-0.2128,-0.2129,-0.2132,-0.2127,-0.2115,-0.2161,-0.2159,-0.2163,-0.209,-0.217,-0.2176,-0.218,-0.2254,-0.2266,-0.2277,0,0,0,0,0,-0.2111,-0.2101,-0.2106,-0.2101,-0.2101,-0.2117,-0.2125,-0.2137,-0.213,-0.2159,-0.2188,-0.2127,-0.2191,-0.2165,-0.216,-0.2164,-0.2167,-0.2174,-0.218,-0.2249,-0.2264,-0.2277,0,0,0,0,0,0,-0.2121,-0.2102,-0.2108,-0.209,-0.2111,-0.2118,-0.2135,-0.2143,-0.2192,-0.2195,-0.2177,-0.2177,-0.2211,-0.2195,-0.2165,-0.221,-0.2163,-0.2169,-0.2216,-0.223,-0.2242,-0.2254,-0.2089,0,0,0,0,0,-0.2127,-0.2118,-0.212,-0.2107,-0.2118,-0.2135,-0.2148,-0.216,-0.2182,-0.2203,-0.222,-0.2232,-0.2236,-0.2241,-0.2252,-0.2283,-0.222,-0.2282,-0.2294,-0.2303,-0.2316,-0.2226,-0.2229,-0.2204,-0.2204,-0.2204,0,0,-0.2116,-0.2108,-0.21,-0.2111,-0.2126,-0.2167,-0.2144,-0.2164,-0.2208,-0.2186,-0.2273,-0.2273,-0.2257,-0.2302,-0.2312,-0.2286,-0.2284,-0.2311,-0.2319,-0.2327,-0.2233,-0.2234,-0.2236,-0.2208,-0.2207,-0.2207,0,0,-0.2107,-0.2098,-0.211,-0.2141,-0.2166,-0.2185,-0.2192,-0.2234,-0.2267,-0.2343,-0.2332,-0.2356,-0.2388,-0.2385,-0.2376,-0.2459,-0.2347,-0.2449,-0.2513,-0.2426,-0.2426,-0.2425,-0.2358,-0.235,-0.2454,-0.2454,-0.2455,0,-0.2104,-0.211,-0.2119,-0.216,-0.2183,-0.2195,-0.2239,-0.2281,-0.2345,-0.2346,-0.2381,-0.2423,-0.2424,-0.2426,-0.2486,-0.2477,-0.2416,-0.2453,-0.2435,-0.2433,-0.243,-0.2361,-0.2352,-0.2459,-0.2458,-0.2458,-0.2458,0,-0.2151,-0.2144,-0.2151,-0.221,-0.2257,-0.2276,-0.2335,-0.2391,-0.2427,-0.2431,-0.247,-0.252,-0.2515,-0.2537,-0.2552,-0.2538,-0.2497,-0.2452,-0.2386,-0.2436,-0.2362,-0.2351,-0.2465,-0.2464,-0.2462,-0.2461,0,0,-0.2112,-0.2172,-0.2169,-0.2184,-0.2278,-0.2299,-0.2393,-0.2425,-0.241,-0.2516,-0.25,-0.2595,-0.2574,-0.2572,-0.2579,-0.2568,-0.2529,-0.2531,-0.2524,-0.2442,-0.2343,-0.2258,-0.2236,-0.2464,-0.2462,-0.2461,-0.2299,0,-0.2129,-0.2201,-0.224,-0.2279,-0.2305,-0.2363,-0.2415,-0.2455,-0.2483,-0.2477,-0.251,-0.2502,-0.259,-0.2584,-0.259,-0.2534,-0.2502,-0.2578,-0.2327,-0.2321,-0.2218,-0.2221,-0.2081,-0.192,-0.2287,-0.2285,-0.2284,0,-0.215,-0.2185,-0.2261,-0.2259,-0.2276,-0.2318,-0.2362,-0.2407,-0.24,-0.2419,-0.2439,-0.2427,-0.2465,-0.2509,-0.2462,-0.2501,-0.244,-0.2414,-0.2403,-0.2288,-0.2213,-0.193,-0.1884,-0.2263,-0.2265,-0.2266,-0.2268,0,-0.2107,-0.2158,-0.2212,-0.224,-0.2293,-0.2316,-0.2337,-0.2364,-0.2359,-0.2361,-0.234,-0.2353,-0.2346,-0.232,-0.2323,-0.2362,-0.2227,-0.223,-0.2097,-0.2089,-0.1905,-0.1884,-0.2147,-0.2147,-0.2147,-0.2148,-0.2148,0,-0.2084,-0.2095,-0.2182,-0.2193,-0.22,-0.2263,-0.2235,-0.227,-0.2262,-0.2196,-0.2279,-0.2248,-0.2298,-0.2238,-0.2247,-0.214,-0.2139,-0.2105,-0.2035,-0.1934,-0.1918,-0.2167,-0.2172,-0.2142,-0.2143,-0.2144,-0.2145,0,-0.2006,-0.2094,-0.2088,-0.2139,-0.2169,-0.2163,-0.2177,-0.2115,-0.2167,-0.2104,-0.2105,-0.2129,-0.207,-0.2088,-0.2006,-0.2003,-0.1926,-0.1869,-0.1773,-0.1696,-0.1871,-0.1882,-0.1704,-0.1699,-0.1695,-0.1692,-0.1689,0,-0.1971,-0.1969,-0.2019,-0.2027,-0.2045,-0.2058,-0.203,-0.2074,-0.2018,-0.2019,-0.1953,-0.1913,-0.1845,-0.1736,-0.1709,-0.164,-0.1751,-0.1473,-0.1539,-0.1872,-0.1822,-0.1839,-0.1855,-0.1327,-0.1322,-0.1318,-0.1314,0,-0.1821,-0.1843,-0.1878,-0.1866,-0.186,-0.1842,-0.1816,-0.1795,-0.1807,-0.1783,-0.171,-0.1662,-0.1566,-0.1437,-0.1372,-0.1336,-0.1493,-0.1379,-0.1677,-0.148,-0.1508,-0.1463,-0.1492,-0.1275,-0.1279,-0.1281,-0.1284,-0.1285,-0.1711,-0.1689,-0.1695,-0.168,-0.1671,-0.16,-0.1554,-0.1535,-0.1476,-0.1435,-0.1447,-0.1356,-0.1326,-0.1163,-0.1084,-0.1058,-0.1183,-0.1163,-0.118,-0.1201,-0.1204,-0.1226,-0.0941,-0.0943,-0.0944,-0.0946,-0.0947,0,-0.1538,-0.1538,-0.1481,-0.1475,-0.1372,-0.1423,-0.137,-0.1316,-0.1239,-0.1217,-0.1161,-0.1008,-0.0893,-0.0892,-0.0776,-0.0754,-0.0789,-0.0734,-0.0785,-0.0822,-0.0856,-0.0847,-0.0486,-0.0484,-0.0483,-0.0482,0,0,-0.1466,-0.1377,-0.1324,-0.1149,-0.1158,-0.1026,-0.0996,-0.0972,-0.0942,-0.088,-0.0838,-0.0868,-0.0859,-0.0683,-0.0626,-0.0534,-0.0684,-0.0506,-0.0871,-0.0968,-0.1001,-0.1089,-0.1114,0,0,0,0,0]},{"header":{"parameterUnit":"m.s-1","parameterCategory":2,"la1":30.2991,"la2":30.254,"lo1":-89.0895,"lo2":-89.0444,"dy":0.0017,"dx":0.0017,"nx":28,"ny":28,"refTime":"2025-12-25T09:00:00:Z","depth":"2","parameterNumber":3,"parameterNumberName":"V-component_of_CURRENTS"},"data":[0,0,0,0,0,0,0,0,0,0,0,0,0,0,0,0,0,0,0,0,0,0,0,0,0,0,0,0,0,0,0,0,0,0,0,0,0,0,0,0,0,0,0,0,0,0,0,0,0,0,0,0,0,0,0,0,0,0,-0.0163,-0.0162,0,-0.0082,-0.0081,-0.008,-0.0027,-0.0026,-0.0026,-0.0026,0.0055,0.0057,0.0059,0,0,0,0,0,0,0,0,0,0,0,0,0,-0.0162,-0.0163,-0.0163,-0.0162,-0.0161,-0.0082,-0.0081,-0.008,-0.0027,-0.0026,-0.0026,-0.0025,0.0055,0.0057,0.0059,0,0,0,0,0,0,0,0,0,0,0,0,0,-0.013,-0.0163,-0.0163,-0.0125,-0.0121,-0.0082,-0.0081,-0.0079,-0.0027,-0.0026,-0.0026,-0.0025,0.0054,0.0057,0.0059,0.0066,0,0,0.0068,0.0069,0,0,0,0,0,0,0,0,-0.0132,-0.013,-0.0131,-0.0127,-0.0123,-0.0064,-0.0051,-0.0031,-0.0027,-0.0062,-0.0026,-0.0025,0.0015,0.0021,0.0035,0.0069,0.0073,0.0068,0.007,0.0071,0.0071,0,0,0,0,0,0,0,-0.0134,-0.0133,-0.0131,-0.013,-0.0125,-0.0074,-0.007,-0.0046,-0.0028,-0.0059,-0.0055,-0.0046,0.0018,0.0032,0.0037,0.0074,0.0068,0.007,0.0072,0.0073,0.0162,0.0163,0,0,0,0,0,0,-0.0151,-0.0136,-0.0133,-0.0128,-0.0126,-0.0075,-0.007,-0.0083,-0.0028,-0.0019,-0.0047,-0.0044,0.0027,0.0034,0.004,0.0081,0.0071,0.0073,0.0075,0.0161,0.0162,0.0163,0,0,0,0,0,0,-0.0152,-0.0153,-0.0137,-0.0128,-0.0123,-0.0076,-0.0091,-0.0082,-0.0065,-0.0018,-0.0009,-0.0038,0.0028,0.0036,0.0095,0.0084,0.0074,0.0077,0.0161,0.0162,0.0163,0.0144,0,0,0,0,0,0,-0.0153,-0.0154,-0.0164,-0.0131,-0.0124,-0.0123,-0.0091,-0.0081,-0.006,-0.0056,-0.0008,-0.0,0.0029,0.0091,0.0097,0.0087,0.0079,0.016,0.0161,0.0162,0.0144,0.0144,0.0145,0,0,0,0,0,-0.0153,-0.0179,-0.0165,-0.0164,-0.0142,-0.0123,-0.0116,-0.0079,-0.006,-0.006,0.0002,-0.0001,0.0103,0.0095,0.0102,0.0092,0.0159,0.0161,0.0162,0.0143,0.0144,0.0145,0,0,0,0,0,0,-0.0189,-0.0174,-0.0159,-0.0181,-0.0155,-0.0114,-0.0108,-0.0083,-0.0036,-0.0026,0.0022,0.0035,0.0077,0.0093,0.0083,0.0123,0.0123,0.0127,0.0106,0.0107,0.0108,0.0133,0.0081,0,0,0,0,0,-0.0201,-0.0216,-0.0186,-0.0203,-0.019,-0.0148,-0.0134,-0.0112,-0.0067,-0.0047,0.0004,0.0051,0.0087,0.0107,0.0143,0.017,0.0187,0.0165,0.0165,0.0166,0.0193,0.0214,0.0219,0.0168,0.0168,0.0168,0,0,-0.0219,-0.0214,-0.0221,-0.021,-0.0185,-0.0178,-0.0139,-0.0125,-0.0104,-0.0046,0.0012,0.0057,0.0098,0.0137,0.0154,0.015,0.0185,0.0168,0.0168,0.0196,0.0216,0.0221,0.0225,0.017,0.0169,0.0169,0,0,-0.0262,-0.0258,-0.0276,-0.0258,-0.0229,-0.0204,-0.0203,-0.0151,-0.0109,-0.0057,-0.0003,0.0058,0.0102,0.0152,0.0173,0.0199,0.019,0.0184,0.0204,0.0222,0.0227,0.0231,0.0238,0.0243,0.0179,0.0179,0.0179,0,-0.0283,-0.0307,-0.0277,-0.0282,-0.0262,-0.022,-0.0219,-0.0181,-0.0108,-0.007,-0.0046,0.0076,0.0113,0.0174,0.0197,0.0199,0.0203,0.0193,0.0222,0.0227,0.0231,0.0238,0.0243,0.0179,0.0179,0.0179,0.0179,0,-0.0325,-0.0343,-0.0351,-0.0344,-0.0315,-0.0317,-0.0254,-0.0208,-0.0155,-0.0118,-0.0026,0.0066,0.0134,0.0148,0.0188,0.0238,0.0227,0.022,0.0216,0.0235,0.024,0.0247,0.0178,0.0178,0.0178,0.0178,0,0,-0.0386,-0.0383,-0.0387,-0.0387,-0.0346,-0.0332,-0.0278,-0.0226,-0.0208,-0.0106,-0.0061,0.006,0.0113,0.0148,0.0208,0.0254,0.0291,0.0257,0.0258,0.0258,0.0321,0.0309,0.0315,0.0277,0.0279,0.028,0.0303,0,-0.0429,-0.0466,-0.0431,-0.0445,-0.0455,-0.0373,-0.0335,-0.0275,-0.0219,-0.017,-0.0048,0.0001,0.0104,0.0137,0.0209,0.0266,0.0311,0.0286,0.0311,0.0312,0.0294,0.0323,0.0314,0.0334,0.0309,0.031,0.0311,0,-0.0479,-0.0498,-0.052,-0.0499,-0.0488,-0.0474,-0.0398,-0.0361,-0.0282,-0.023,-0.0131,-0.0071,0.0058,0.0112,0.0267,0.024,0.0295,0.0344,0.0345,0.0355,0.0314,0.0318,0.0347,0.0322,0.0321,0.032,0.0319,0,-0.0544,-0.0557,-0.0577,-0.057,-0.0535,-0.0495,-0.0461,-0.0385,-0.035,-0.0276,-0.0256,-0.0117,-0.0045,0.0069,0.0216,0.0223,0.0347,0.0345,0.0394,0.0392,0.0406,0.0403,0.044,0.044,0.044,0.044,0.044,0,-0.0608,-0.0627,-0.0613,-0.0625,-0.0629,-0.0563,-0.055,-0.0489,-0.0427,-0.0407,-0.0294,-0.0229,-0.0051,0.0046,0.0172,0.0314,0.031,0.0421,0.0409,0.0396,0.0392,0.0404,0.0399,0.0441,0.044,0.044,0.044,0,-0.0676,-0.0673,-0.0702,-0.0677,-0.0665,-0.0663,-0.0607,-0.0602,-0.0528,-0.0491,-0.0466,-0.0322,-0.0178,-0.002,0.0142,0.0247,0.0369,0.041,0.0383,0.0369,0.041,0.0404,0.0465,0.0465,0.0465,0.0465,0.0465,0,-0.0711,-0.074,-0.0753,-0.0758,-0.0743,-0.0733,-0.0722,-0.0655,-0.0636,-0.0528,-0.0509,-0.0381,-0.0251,-0.0022,0.0159,0.0339,0.0366,0.0413,0.0448,0.0437,0.0418,0.0413,0.0407,0.0446,0.0446,0.0446,0.0446,0,-0.077,-0.078,-0.0804,-0.0826,-0.0822,-0.0828,-0.0799,-0.0798,-0.0708,-0.0654,-0.0541,-0.044,-0.0215,-0.0001,0.0205,0.0314,0.0385,0.0415,0.0411,0.0438,0.042,0.0401,0.0397,0.0445,0.0445,0.0445,0.0445,0.0445,-0.0808,-0.0838,-0.086,-0.0868,-0.0884,-0.0879,-0.0873,-0.0831,-0.0782,-0.0653,-0.0564,-0.0371,-0.0196,0.0131,0.0266,0.0387,0.0401,0.0451,0.0451,0.0452,0.0442,0.0425,0.0448,0.0449,0.0449,0.0449,0.0449,0,-0.0839,-0.0853,-0.0879,-0.089,-0.0911,-0.0903,-0.0888,-0.0852,-0.0779,-0.0639,-0.0496,-0.026,-0.0039,0.0137,0.0334,0.0442,0.0446,0.0453,0.0448,0.0449,0.0449,0.0439,0.0445,0.0445,0.0445,0.0446,0,0,-0.0846,-0.0869,-0.0868,-0.0881,-0.0898,-0.09,-0.0889,-0.0823,-0.0714,-0.0545,-0.0387,-0.0202,0.0003,0.0141,0.0272,0.0369,0.0378,0.0371,0.0365,0.0345,0.0344,0.0441,0.0425,0,0,0,0,0]}],[{"header":{"parameterUnit":"m.s-1","parameterCategory":2,"la1":30.2991,"la2":30.254,"lo1":-89.0895,"lo2":-89.0444,"dy":0.0017,"dx":0.0017,"nx":28,"ny":28,"refTime":"2025-12-25T09:00:00:Z","depth":"4","parameterNumber":2,"parameterNumberName":"U-component_of_CURRENTS"},"data":[0,0,0,0,0,0,0,0,0,0,0,0,0,0,0,0,0,0,0,0,0,0,0,0,0,0,0,0,0,0,0,0,0,0,0,0,0,0,0,0,0,0,0,0,0,0,0,0,0,0,0,0,0,0,0,0,0,0,-0.0998,-0.1,0,-0.1052,-0.1052,-0.1052,-0.1071,-0.1071,-0.1072,-0.1072,-0.1173,-0.1175,-0.1177,0,0,0,0,0,0,0,0,0,0,0,0,0,-0.0857,-0.086,-0.0998,-0.1,-0.1001,-0.1052,-0.1052,-0.1052,-0.1071,-0.1071,-0.1072,-0.1072,-0.1172,-0.1175,-0.1178,0,0,0,0,0,0,0,0,0,0,0,0,0,-0.091,-0.0861,-0.0998,-0.1021,-0.1024,-0.1052,-0.1052,-0.1052,-0.1071,-0.1071,-0.1072,-0.1072,-0.1171,-0.1174,-0.1178,-0.119,0,0,-0.1189,-0.119,0,0,0,0,0,0,0,0,-0.0907,-0.0914,-0.1016,-0.1019,-0.1023,-0.1061,-0.104,-0.1103,-0.1071,-0.1047,-0.1072,-0.1073,-0.1143,-0.1149,-0.1149,-0.1194,-0.1199,-0.1189,-0.1191,-0.1193,-0.1194,0,0,0,0,0,0,0,-0.0903,-0.0912,-0.1014,-0.1018,-0.1022,-0.101,-0.1018,-0.1051,-0.1088,-0.1049,-0.1052,-0.1067,-0.1144,-0.1145,-0.1152,-0.12,-0.1189,-0.1192,-0.1194,-0.1196,-0.1307,-0.1308,0,0,0,0,0,0,-0.0912,-0.0909,-0.1012,-0.1016,-0.0972,-0.1013,-0.1021,-0.1043,-0.1086,-0.1095,-0.1067,-0.1068,-0.1139,-0.1147,-0.1155,-0.1226,-0.1193,-0.1196,-0.1198,-0.1306,-0.1307,-0.1308,0,0,0,0,0,0,-0.0908,-0.092,-0.101,-0.0968,-0.0979,-0.1015,-0.1039,-0.1044,-0.1063,-0.11,-0.1109,-0.1084,-0.114,-0.115,-0.1202,-0.1228,-0.1198,-0.1201,-0.1305,-0.1307,-0.1308,-0.1334,0,0,0,0,0,0,-0.0904,-0.0919,-0.0936,-0.0969,-0.0982,-0.1037,-0.104,-0.1045,-0.1074,-0.1076,-0.1118,-0.1127,-0.1141,-0.1197,-0.1206,-0.1233,-0.1204,-0.1304,-0.1306,-0.1307,-0.1332,-0.1336,-0.1339,0,0,0,0,0,-0.0899,-0.0922,-0.0937,-0.095,-0.1005,-0.1039,-0.1044,-0.1066,-0.1074,-0.1084,-0.1117,-0.1126,-0.1213,-0.1201,-0.1211,-0.1239,-0.1303,-0.1305,-0.1307,-0.133,-0.1335,-0.1339,0,0,0,0,0,0,-0.0872,-0.0928,-0.0944,-0.0985,-0.1015,-0.1044,-0.1062,-0.1076,-0.1106,-0.1119,-0.1142,-0.1153,-0.1207,-0.1218,-0.1204,-0.1274,-0.1258,-0.1262,-0.1272,-0.1277,-0.128,-0.1263,-0.1207,0,0,0,0,0,-0.0875,-0.0908,-0.0953,-0.0986,-0.1005,-0.1035,-0.1053,-0.1073,-0.1106,-0.112,-0.1149,-0.1184,-0.1219,-0.1244,-0.1274,-0.1317,-0.1309,-0.1339,-0.1343,-0.1346,-0.1338,-0.1346,-0.1349,-0.1314,-0.1314,-0.1314,0,0,-0.0876,-0.0911,-0.093,-0.0982,-0.1009,-0.1035,-0.1046,-0.1086,-0.1108,-0.1129,-0.1171,-0.1202,-0.1233,-0.1279,-0.1304,-0.1296,-0.1353,-0.1348,-0.1351,-0.1341,-0.1348,-0.1351,-0.1354,-0.1316,-0.1315,-0.1315,0,0,-0.0883,-0.0925,-0.0948,-0.0979,-0.1031,-0.1049,-0.1065,-0.1107,-0.1129,-0.118,-0.1195,-0.1236,-0.1297,-0.1312,-0.1331,-0.1371,-0.1372,-0.1391,-0.14,-0.1408,-0.141,-0.1412,-0.141,-0.1412,-0.1393,-0.1393,-0.1393,0,-0.0877,-0.0922,-0.0958,-0.0989,-0.1016,-0.1056,-0.1082,-0.1109,-0.1162,-0.1183,-0.1202,-0.1279,-0.1307,-0.1348,-0.1364,-0.1379,-0.1382,-0.1382,-0.1411,-0.1413,-0.1415,-0.1412,-0.1413,-0.1394,-0.1394,-0.1394,-0.1394,0,-0.0891,-0.0939,-0.0959,-0.1008,-0.1034,-0.1072,-0.1115,-0.1144,-0.1183,-0.1214,-0.1275,-0.1313,-0.1355,-0.1374,-0.1388,-0.1418,-0.1415,-0.1415,-0.1398,-0.142,-0.1416,-0.1417,-0.1396,-0.1396,-0.1395,-0.1395,0,0,-0.0858,-0.0949,-0.0961,-0.099,-0.1054,-0.1075,-0.1116,-0.1161,-0.1192,-0.1251,-0.1293,-0.135,-0.1376,-0.1396,-0.1417,-0.1426,-0.1446,-0.1431,-0.1431,-0.1423,-0.1462,-0.1362,-0.1354,-0.1458,-0.1458,-0.1458,-0.1454,0,-0.0861,-0.0912,-0.0961,-0.1014,-0.1041,-0.1093,-0.1127,-0.1174,-0.1222,-0.1274,-0.1321,-0.1377,-0.1384,-0.1418,-0.1428,-0.145,-0.145,-0.1446,-0.1445,-0.1444,-0.1349,-0.1352,-0.1459,-0.1455,-0.1455,-0.1455,-0.1456,0,-0.086,-0.0893,-0.0938,-0.1021,-0.104,-0.1075,-0.113,-0.1174,-0.1248,-0.1289,-0.1343,-0.139,-0.143,-0.1433,-0.1457,-0.146,-0.1457,-0.1462,-0.1462,-0.1356,-0.1346,-0.1428,-0.1457,-0.1457,-0.1457,-0.1457,-0.1457,0,-0.08,-0.0888,-0.0919,-0.0947,-0.1031,-0.1063,-0.1112,-0.1179,-0.1223,-0.1303,-0.1345,-0.14,-0.1444,-0.145,-0.1467,-0.1471,-0.1482,-0.1487,-0.1386,-0.1379,-0.146,-0.1458,-0.1481,-0.1481,-0.1481,-0.1481,-0.1481,0,-0.0783,-0.0816,-0.0901,-0.0921,-0.0961,-0.1038,-0.109,-0.1143,-0.1233,-0.1284,-0.1356,-0.1391,-0.1453,-0.1475,-0.1472,-0.1425,-0.1482,-0.1376,-0.1367,-0.1472,-0.1471,-0.1461,-0.1458,-0.1481,-0.1481,-0.1481,-0.1481,0,-0.0721,-0.0781,-0.0827,-0.0916,-0.0938,-0.0972,-0.1076,-0.1115,-0.1206,-0.1272,-0.1305,-0.1399,-0.1417,-0.1448,-0.1464,-0.1421,-0.1394,-0.1358,-0.1463,-0.1463,-0.1287,-0.1286,-0.1245,-0.1241,-0.1238,-0.1236,-0.1233,0,-0.0701,-0.0716,-0.0796,-0.0817,-0.0865,-0.0922,-0.0959,-0.1076,-0.1123,-0.1257,-0.1283,-0.135,-0.1389,-0.1325,-0.1364,-0.1332,-0.1314,-0.1293,-0.1286,-0.1264,-0.1261,-0.1265,-0.1268,-0.1229,-0.1228,-0.1227,-0.1226,0,-0.0654,-0.0687,-0.071,-0.0746,-0.0794,-0.0839,-0.0915,-0.0942,-0.1077,-0.1167,-0.1218,-0.1238,-0.1253,-0.1259,-0.1238,-0.1218,-0.1307,-0.126,-0.1267,-0.126,-0.1244,-0.1244,-0.1251,-0.1215,-0.1217,-0.1218,-0.1219,0,-0.0611,-0.0614,-0.0647,-0.0674,-0.0723,-0.0758,-0.0805,-0.0868,-0.0934,-0.1094,-0.1099,-0.1167,-0.1241,-0.1198,-0.1182,-0.115,-0.1133,-0.1098,-0.1113,-0.1125,-0.1086,-0.1047,-0.0939,0,0,0,0,0,-0.0562,-0.0553,-0.0574,-0.0608,-0.0655,-0.0687,-0.0775,-0.0833,-0.0956,-0.0959,-0.1034,-0.1042,-0.1043,-0.1078,-0.1016,-0.1117,-0.113,-0.1041,-0.1095,-0.1156,-0.1168,-0.1133,0,0,0,0,0,0,-0.0523,-0.0531,-0.0543,-0.0549,-0.0556,-0.061,-0.0665,-0.0749,-0.076,-0.0879,-0.0877,-0.0965,-0.0969,-0.1051,-0.0989,-0.0997,-0.1006,-0.1083,-0.108,-0.1149,-0.116,-0.117,-0.1138,0,0,0,0,0]},{"header":{"parameterUnit":"m.s-1","parameterCategory":2,"la1":30.2991,"la2":30.254,"lo1":-89.0895,"lo2":-89.0444,"dy":0.0017,"dx":0.0017,"nx":28,"ny":28,"refTime":"2025-12-25T09:00:00:Z","depth":"4","parameterNumber":3,"parameterNumberName":"V-component_of_CURRENTS"},"data":[0,0,0,0,0,0,0,0,0,0,0,0,0,0,0,0,0,0,0,0,0,0,0,0,0,0,0,0,0,0,0,0,0,0,0,0,0,0,0,0,0,0,0,0,0,0,0,0,0,0,0,0,0,0,0,0,0,0,-0.0272,-0.0272,0,-0.0275,-0.0275,-0.0275,-0.0259,-0.0258,-0.0257,-0.0257,-0.0184,-0.0183,-0.0181,0,0,0,0,0,0,0,0,0,0,0,0,0,-0.0293,-0.0292,-0.0272,-0.0272,-0.0272,-0.0275,-0.0275,-0.0275,-0.0259,-0.0258,-0.0257,-0.0256,-0.0184,-0.0183,-0.0181,0,0,0,0,0,0,0,0,0,0,0,0,0,-0.0291,-0.0292,-0.0272,-0.0262,-0.0261,-0.0274,-0.0275,-0.0275,-0.0259,-0.0258,-0.0257,-0.0256,-0.0185,-0.0183,-0.0181,-0.0192,0,0,-0.0175,-0.0175,0,0,0,0,0,0,0,0,-0.0291,-0.0291,-0.0264,-0.0263,-0.0261,-0.0263,-0.0255,-0.0243,-0.0259,-0.0263,-0.0257,-0.0255,-0.0202,-0.0199,-0.0207,-0.0189,-0.0186,-0.0175,-0.0174,-0.0173,-0.0173,0,0,0,0,0,0,0,-0.0291,-0.0291,-0.0276,-0.0263,-0.0262,-0.027,-0.0268,-0.0254,-0.024,-0.0263,-0.0261,-0.0256,-0.0201,-0.0209,-0.0205,-0.0184,-0.0175,-0.0174,-0.0173,-0.0172,-0.0158,-0.0159,0,0,0,0,0,0,-0.0284,-0.0291,-0.0276,-0.0276,-0.027,-0.027,-0.0269,-0.0266,-0.0242,-0.0237,-0.0257,-0.0255,-0.0213,-0.0207,-0.0202,-0.0202,-0.0173,-0.0172,-0.0171,-0.0157,-0.0158,-0.0159,0,0,0,0,0,0,-0.0284,-0.0283,-0.0276,-0.0281,-0.028,-0.027,-0.0268,-0.0266,-0.0271,-0.0238,-0.0232,-0.0262,-0.0212,-0.0205,-0.0192,-0.0199,-0.0171,-0.0169,-0.0157,-0.0158,-0.0159,-0.0209,0,0,0,0,0,0,-0.0285,-0.0283,-0.0289,-0.028,-0.0279,-0.0284,-0.0268,-0.0267,-0.0269,-0.0266,-0.024,-0.0232,-0.021,-0.0195,-0.019,-0.0196,-0.0168,-0.0156,-0.0157,-0.0158,-0.0206,-0.0212,-0.0216,0,0,0,0,0,-0.0286,-0.0297,-0.0289,-0.0288,-0.0285,-0.0284,-0.0286,-0.0277,-0.027,-0.0277,-0.026,-0.0233,-0.02,-0.0195,-0.0189,-0.0194,-0.0155,-0.0157,-0.0158,-0.0204,-0.0211,-0.0216,0,0,0,0,0,0,-0.0307,-0.0296,-0.0287,-0.0294,-0.0288,-0.028,-0.029,-0.0281,-0.0278,-0.0274,-0.0244,-0.0236,-0.0228,-0.0207,-0.0202,-0.0195,-0.0173,-0.0174,-0.021,-0.0216,-0.0221,-0.0228,-0.0166,0,0,0,0,0,-0.0314,-0.032,-0.0306,-0.0311,-0.0311,-0.0302,-0.0304,-0.0295,-0.0285,-0.0283,-0.0266,-0.0247,-0.0234,-0.0221,-0.0208,-0.0204,-0.0162,-0.0204,-0.0209,-0.0213,-0.0216,-0.0166,-0.0166,-0.0165,-0.0165,-0.0165,0,0,-0.0322,-0.0318,-0.032,-0.0316,-0.0314,-0.0324,-0.0302,-0.0304,-0.0311,-0.0274,-0.0284,-0.0265,-0.0238,-0.0236,-0.023,-0.0216,-0.0189,-0.0215,-0.0219,-0.0219,-0.0167,-0.0167,-0.0167,-0.0166,-0.0166,-0.0166,0,0,-0.0343,-0.0339,-0.0352,-0.0353,-0.0348,-0.0343,-0.0343,-0.0338,-0.0335,-0.0338,-0.0315,-0.0299,-0.0284,-0.0265,-0.0253,-0.0277,-0.022,-0.0274,-0.03,-0.0251,-0.025,-0.0249,-0.0184,-0.0177,-0.0273,-0.0273,-0.0273,0,-0.0353,-0.0365,-0.0356,-0.037,-0.0376,-0.0353,-0.0369,-0.0368,-0.0359,-0.0353,-0.0344,-0.0319,-0.0298,-0.0284,-0.0299,-0.0287,-0.0245,-0.0279,-0.0256,-0.0254,-0.0252,-0.0186,-0.0177,-0.0276,-0.0275,-0.0275,-0.0275,0,-0.0385,-0.0395,-0.0404,-0.0415,-0.0423,-0.0431,-0.0423,-0.0426,-0.0417,-0.0405,-0.0391,-0.0366,-0.0343,-0.034,-0.0329,-0.0311,-0.028,-0.027,-0.0239,-0.0255,-0.0184,-0.0174,-0.0279,-0.0278,-0.0278,-0.0277,0,0,-0.0397,-0.0422,-0.0425,-0.0437,-0.0447,-0.0453,-0.0468,-0.0465,-0.0463,-0.0449,-0.0439,-0.0426,-0.0398,-0.0384,-0.036,-0.0329,-0.028,-0.0302,-0.0298,-0.0233,-0.0156,-0.0161,-0.0149,-0.0265,-0.0264,-0.0263,-0.0107,0,-0.042,-0.0464,-0.0466,-0.0497,-0.0518,-0.0507,-0.0524,-0.0518,-0.0501,-0.0486,-0.0447,-0.0427,-0.0417,-0.04,-0.037,-0.03,-0.0258,-0.0322,-0.0154,-0.0149,-0.0148,-0.014,-0.0259,-0.01,-0.0097,-0.0095,-0.0094,0,-0.0445,-0.0473,-0.052,-0.0539,-0.0546,-0.0564,-0.0574,-0.0577,-0.0548,-0.053,-0.0496,-0.0456,-0.0406,-0.0398,-0.0276,-0.0315,-0.0247,-0.0193,-0.0185,-0.0167,-0.0135,-0.0083,-0.0075,-0.0077,-0.0078,-0.0079,-0.008,0,-0.0466,-0.05,-0.0542,-0.0554,-0.0581,-0.0597,-0.0603,-0.0594,-0.0586,-0.0546,-0.0524,-0.0458,-0.0407,-0.0325,-0.0219,-0.0239,-0.0075,-0.0079,-0.0013,-0.0011,-0.0029,-0.0032,0.0004,0.0004,0.0003,0.0003,0.0002,0,-0.0487,-0.0513,-0.0557,-0.0581,-0.0618,-0.0625,-0.064,-0.0635,-0.0612,-0.0589,-0.0542,-0.0498,-0.0389,-0.0286,-0.0202,-0.0067,-0.0048,-0.0012,0.0025,-0.0053,-0.0061,-0.0021,-0.0026,0.0009,0.0008,0.0006,0.0005,0,-0.0495,-0.053,-0.0571,-0.0615,-0.0631,-0.0655,-0.0666,-0.0664,-0.0644,-0.061,-0.0593,-0.0501,-0.0364,-0.0246,-0.0084,-0.0034,0.0087,0.0128,0.0057,0.0087,0.0118,0.0108,0.0222,0.0223,0.0224,0.0225,0.0226,0,-0.0505,-0.0536,-0.0595,-0.0623,-0.0644,-0.0676,-0.0694,-0.0687,-0.0676,-0.0605,-0.0583,-0.0453,-0.038,-0.0132,-0.0033,0.0149,0.0152,0.0217,0.0133,0.0114,0.0139,0.0128,0.0118,0.0227,0.0227,0.0228,0.0228,0,-0.0515,-0.054,-0.0573,-0.0632,-0.0668,-0.0693,-0.0713,-0.0706,-0.0676,-0.0659,-0.0542,-0.0425,-0.0269,-0.0113,0.0031,0.0146,0.0172,0.0226,0.0224,0.0146,0.0121,0.0142,0.0131,0.0231,0.023,0.023,0.023,0,-0.0513,-0.0536,-0.0581,-0.0625,-0.0674,-0.0697,-0.0706,-0.0677,-0.0659,-0.0586,-0.0539,-0.0383,-0.0289,-0.0111,0.0018,0.0134,0.0141,0.015,0.0152,0.015,0.0058,0.0011,0.0126,0,0,0,0,0,-0.05,-0.0526,-0.0567,-0.0618,-0.0665,-0.069,-0.0711,-0.071,-0.0687,-0.0601,-0.0567,-0.042,-0.0216,-0.0128,-0.0009,0.0005,0.014,0.0142,0.0147,0.0248,0.0244,0.0144,0,0,0,0,0,0,-0.0496,-0.0535,-0.0556,-0.0601,-0.0632,-0.0676,-0.0691,-0.0677,-0.0626,-0.0583,-0.0465,-0.0409,-0.0206,-0.0271,-0.0007,0.0025,0.0037,0.0237,0.0239,0.025,0.0247,0.0244,0.0139,0,0,0,0,0]}]]